Location: Maccacari
(45.1333°N, 11.1333°E)
Time: 16:42:23
(UTC+00:00)

SR - Pass Details

Date: 18 June 2021
Orbit: 577 x 878 km, 66.7° (Epoch: 24 July)

Event Time Altitude Azimuth Distance (km) Brightness Sun altitude
Rises 23:24:49 0° 332° (NNW) 3,346 ? -21.4°
Reaches altitude 10° 23:27:42 10° 344° (NNW) 2,362 ? -21.4°
Maximum altitude 23:32:17 27° 42° (NE) 1,402 ? -21.4°
Drops below altitude 10° 23:36:33 10° 101° (E) 2,180 ? -21.3°
Enters shadow 23:38:19 - 110° (ESE) 2,769 ? -21.3°
